EW7144 Weather Reports


time (UTC)temp
C
wind
direction
speed
KPH
gust
KPH
rain 1hr
cm
rain 24hr
cm
rain mn
cm
humidity
%
barometer
mb
20260903044405 14 326 6.4 19.3 0.00 0.00 0.00 87 1012.6
20260903043906 14 331 8.0 19.3 0.00 0.00 0.00 87 1012.6
20260903043405 14 339 8.0 19.3 0.00 0.00 0.00 86 1012.6
20260903042906 14 350 8.0 16.1 0.00 0.00 0.00 86 1012.6
20260903042405 15 341 4.8 16.1 0.00 0.00 0.00 86 1012.7
20260903041406 15 352 9.7 19.3 0.00 0.00 0.00 85 1012.6
20260903040905 15 336 9.7 19.3 0.00 0.00 0.00 84 1012.7
20260903040406 15 349 8.0 19.3 0.00 0.00 0.00 84 1012.8
20260903035406 15 322 8.0 19.3 0.00 0.00 0.00 84 1012.8
20260903034905 15 325 8.0 16.1 0.00 0.00 0.00 84 1012.8
20260903033905 15 344 12.9 19.3 0.00 0.00 0.00 84 1013.0
20260903033405 15 346 8.0 20.9 0.00 0.00 0.00 85 1013.0
20260903032905 15 333 8.0 20.9 0.00 0.00 0.00 86 1013.0
20260903032405 15 350 9.7 20.9 0.00 0.00 0.00 85 1013.1
20260903031905 15 342 11.3 20.9 0.00 0.00 0.00 86 1013.1
20260903031405 15 332 8.0 20.9 0.00 0.00 0.00 85 1013.1
20260903030906 15 352 8.0 19.3 0.00 0.00 0.00 85 1013.2
20260903030405 15 338 8.0 16.1 0.00 0.00 0.00 85 1013.2
20260903025906 15 331 4.8 12.9 0.00 0.00 0.00 85 1013.2
20260903024905 15 340 9.7 19.3 0.00 0.00 0.00 83 1013.3
20260903024406 15 345 6.4 12.9 0.00 0.00 0.00 83 1013.4
20260903023905 16 340 6.4 16.1 0.00 0.00 0.00 82 1013.4
20260903023405 16 348 6.4 19.3 0.00 0.00 0.00 81 1013.4
20260903022906 17 341 9.7 20.9 0.00 0.00 0.00 81 1013.5
20260903022405 17 354 9.7 25.7 0.00 0.00 0.00 81 1013.5
20260903021405 17 314 8.0 16.1 0.00 0.00 0.00 82 1013.7
20260903020905 17 339 8.0 19.3 0.00 0.00 0.00 83 1013.8
20260903015905 15 351 6.4 19.3 0.00 0.00 0.00 85 1013.9
20260903015405 15 339 11.3 20.9 0.00 0.00 0.00 84 1014.0
20260903014406 15 345 6.4 12.9 0.00 0.00 0.00 83 1014.0
20260903013905 16 338 9.7 16.1 0.00 0.00 0.00 82 1014.0
20260903013405 16 345 8.0 16.1 0.00 0.00 0.00 82 1014.0
20260903012405 16 341 8.0 19.3 0.00 0.00 0.00 83 1014.1
20260903011905 15 352 6.4 16.1 0.00 0.00 0.00 83 1014.2
20260903011405 15 334 9.7 20.9 0.00 0.00 0.00 83 1014.3
20260903010405 15 332 6.4 19.3 0.00 0.00 0.00 82 1014.5
20260903005905 15 330 8.0 19.3 0.00 0.00 0.00 82 1014.5
20260903005406 15 335 6.4 16.1 0.00 0.00 0.00 83 1014.5
20260903004905 15 349 9.7 19.3 0.00 0.00 0.00 82 1014.6
20260903003905 16 315 9.7 20.9 0.00 0.00 0.00 82 1014.9
20260903002905 16 342 11.3 27.4 0.00 0.00 0.00 82 1015.0
20260903002406 16 330 14.5 24.1 0.00 0.00 0.00 82 1015.0
20260903001905 16 350 11.3 24.1 0.00 0.00 0.00 82 1015.1
20260903001405 16 351 9.7 25.7 0.00 0.00 0.00 82 1015.2
20260903000905 16 352 11.3 22.5 0.00 0.00 0.00 82 1015.3
20260903000406 16 341 11.3 22.5 0.00 0.00 0.00 83 1015.3
20260902235905 16 343 14.5 24.1 0.00 0.00 0.00 83 1015.3
20260902235405 15 340 11.3 27.4 0.00 0.00 0.00 83 1015.3
20260902234905 15 341 11.3 20.9 0.00 0.00 0.00 84 1015.3
20260902234405 15 336 11.3 27.4 0.00 0.00 0.00 84 1015.3
20260902233905 15 347 9.7 22.5 0.00 0.00 0.00 84 1015.4
20260902233405 15 337 9.7 22.5 0.00 0.00 0.00 85 1015.4
20260902232905 15 328 9.7 24.1 0.00 0.00 0.00 85 1015.4
20260902232405 15 345 8.0 20.9 0.00 0.00 0.00 85 1015.5
20260902231905 15 323 9.7 20.9 0.00 0.00 0.00 85 1015.6
20260902231406 15 326 8.0 22.5 0.00 0.00 0.00 85 1015.7
20260902230905 15 341 8.0 22.5 0.00 0.00 0.00 85 1015.7
20260902230405 15 350 9.7 22.5 0.00 0.00 0.00 85 1015.8
20260902225405 14 314 11.3 24.1 0.00 0.00 0.00 85 1015.7
20260902224910 15 321 11.3 22.5 0.00 0.00 0.00 86 1015.6
20260902224405 14 337 8.0 19.3 0.00 0.00 0.00 86 1015.7
20260902223905 14 340 8.0 19.3 0.00 0.00 0.00 86 1015.7
20260902223405 14 347 8.0 19.3 0.00 0.00 0.00 85 1015.7
20260902222906 14 326 8.0 22.5 0.00 0.00 0.00 85 1015.6
20260902221905 15 329 9.7 20.9 0.00 0.00 0.00 85 1015.5
20260902221405 15 320 4.8 20.9 0.00 0.00 0.00 85 1015.6
20260902220906 14 336 4.8 22.5 0.00 0.00 0.00 85 1015.7
20260902220405 15 338 9.7 19.3 0.00 0.00 0.00 85 1015.6
20260902215905 15 342 8.0 20.9 0.00 0.00 0.00 85 1015.7
20260902215406 15 352 9.7 22.5 0.00 0.00 0.00 85 1015.6
20260902214906 14 334 9.7 20.9 0.00 0.00 0.00 85 1015.6
20260902214406 14 325 11.3 20.9 0.00 0.00 0.00 86 1015.6
20260902213907 14 305 8.0 19.3 0.00 0.00 0.00 86 1015.6
20260902212905 14 325 6.4 20.9 0.00 0.00 0.00 86 1015.8
20260902212406 14 338 8.0 19.3 0.00 0.00 0.00 87 1015.8
20260902211905 14 331 11.3 25.7 0.00 0.00 0.00 87 1015.9
20260902211406 13 340 11.3 22.5 0.00 0.00 0.00 87 1015.9
20260902205405 13 344 8.0 22.5 0.00 0.00 0.00 87 1015.9
20260902203905 13 349 9.7 25.7 0.00 0.00 0.00 87 1015.9
20260902203406 13 310 11.3 27.4 0.00 0.00 0.00 87 1015.9
20260902202905 13 335 11.3 25.7 0.00 0.00 0.00 87 1015.8
20260902202405 13 335 11.3 27.4 0.00 0.00 0.00 87 1015.8
20260902201906 13 341 11.3 20.9 0.00 0.00 0.00 87 1015.6
20260902200905 13 357 12.9 25.7 0.00 0.00 0.00 87 1015.6
20260902200405 13 347 11.3 33.8 0.00 0.00 0.00 87 1015.7
20260902195906 13 329 14.5 33.8 0.00 0.00 0.00 87 1015.6
20260902195406 13 341 14.5 25.7 0.00 0.00 0.00 87 1015.6
20260902194905 13 345 14.5 25.7 0.00 0.00 0.00 87 1015.6
20260902194405 13 336 11.3 27.4 0.00 0.00 0.00 87 1015.6
20260902193906 13 324 16.1 37.0 0.00 0.00 0.00 87 1015.7
20260902193406 13 334 14.5 27.4 0.00 0.00 0.00 87 1015.6
20260902192905 13 338 16.1 29.0 0.00 0.00 0.00 87 1015.6
20260902192405 13 349 14.5 32.2 0.00 0.00 0.00 87 1015.6
20260902191906 13 343 11.3 27.4 0.00 0.00 0.00 87 1015.5
20260902191405 13 314 12.9 27.4 0.00 0.00 0.00 87 1015.4
20260902190405 13 345 12.9 32.2 0.00 0.00 0.00 87 1015.4
20260902185905 13 336 14.5 32.2 0.00 0.00 0.00 87 1015.3
20260902185406 13 315 14.5 32.2 0.00 0.00 0.00 87 1015.3
20260902184906 13 348 14.5 33.8 0.00 0.00 0.00 87 1015.1
20260902184405 13 347 14.5 32.2 0.00 0.00 0.00 87 1015.1
20260902183406 13 312 14.5 24.1 0.00 0.00 0.00 87 1015.1
20260902182905 13 351 12.9 25.7 0.00 0.00 0.00 87 1015.1
20260902182406 13 334 12.9 27.4 0.00 0.00 0.00 87 1015.0
20260902181905 13 331 14.5 32.2 0.00 0.00 0.00 87 1015.0
20260902181405 13 342 17.7 35.4 0.00 0.00 0.00 87 1015.0
20260902180406 13 346 14.5 29.0 0.00 0.00 0.00 87 1015.1
20260902175405 13 337 16.1 35.4 0.00 0.00 0.00 87 1015.3
20260902174905 13 332 11.3 32.2 0.00 0.00 0.00 87 1015.2
20260902174405 13 324 14.5 29.0 0.00 0.00 0.00 87 1015.3
20260902173405 13 344 11.3 32.2 0.00 0.00 0.00 87 1015.2
20260902172905 13 317 14.5 25.7 0.00 0.00 0.00 87 1015.2
20260902172405 13 328 16.1 32.2 0.00 0.00 0.00 87 1015.2
20260902171409 13 352 19.3 32.2 0.00 0.00 0.00 87 1015.1
20260902170905 13 345 16.1 38.6 0.00 0.00 0.00 87 1015.1
20260902170406 13 307 14.5 29.0 0.00 0.00 0.00 87 1015.0
20260902165906 13 317 20.9 41.8 0.00 0.00 0.00 87 1015.0
20260902165405 13 347 14.5 33.8 0.00 0.00 0.00 87 1015.0
20260902164906 13 342 16.1 32.2 0.00 0.00 0.00 87 1014.9
20260902164405 13 333 12.9 35.4 0.00 0.00 0.00 87 1015.0
20260902163909 13 330 19.3 35.4 0.00 0.00 0.00 87 1015.0
20260902163406 13 342 16.1 37.0 0.00 0.00 0.00 87 1014.9
20260902162905 13 342 14.5 32.2 0.00 0.00 0.00 87 1014.9
20260902162406 13 347 19.3 32.2 0.00 0.00 0.00 87 1014.9
20260902161905 13 356 16.1 35.4 0.00 0.00 0.00 87 1014.8
20260902161406 13 352 17.7 33.8 0.00 0.00 0.00 87 1014.7
20260902160905 13 328 19.3 40.2 0.00 0.00 0.00 88 1014.7
20260902160405 13 320 16.1 32.2 0.00 0.00 0.00 88 1014.7
20260902155905 13 337 16.1 33.8 0.00 0.00 0.00 88 1014.7
20260902154905 13 331 16.1 33.8 0.00 0.00 0.00 88 1014.7
20260902154405 13 355 20.9 35.4 0.00 0.00 0.00 88 1014.7
20260902153905 13 318 20.9 35.4 0.00 0.00 0.00 88 1014.6
20260902153406 13 349 16.1 33.8 0.00 0.00 0.00 88 1014.6
20260902152905 13 341 19.3 32.2 0.00 0.00 0.00 88 1014.7
20260902152405 13 328 19.3 32.2 0.00 0.00 0.00 88 1014.8
20260902151905 13 343 16.1 27.4 0.00 0.00 0.00 88 1014.7
20260902150905 13 345 20.9 35.4 0.00 0.00 0.00 88 1014.9
20260902150405 13 324 14.5 38.6 0.00 0.00 0.00 88 1014.8
20260902145906 13 338 19.3 41.8 0.00 0.00 0.00 88 1014.8
20260902145405 13 340 16.1 32.2 0.00 0.00 0.00 88 1015.0
20260902144905 13 347 14.5 33.8 0.00 0.00 0.00 88 1015.1
20260902144406 13 335 19.3 32.2 0.00 0.00 0.00 88 1015.1
20260902143405 13 343 16.1 32.2 0.00 0.00 0.00 88 1015.2
20260902142405 13 354 16.1 32.2 0.00 0.00 0.00 88 1015.4
20260902141406 13 327 12.9 33.8 0.00 0.00 0.00 88 1015.4
20260902140906 13 341 16.1 41.8 0.00 0.00 0.00 88 1015.5
20260902140405 13 347 14.5 37.0 0.00 0.00 0.00 88 1015.5
20260902135405 13 349 16.1 32.2 0.00 0.00 0.00 88 1015.5
20260902134905 13 347 14.5 32.2 0.00 0.00 0.00 87 1015.6
20260902134405 13 348 12.9 35.4 0.00 0.00 0.00 87 1015.6
20260902133905 13 306 11.3 27.4 0.00 0.00 0.00 87 1015.7
20260902133405 13 348 14.5 32.2 0.00 0.00 0.00 87 1015.7
20260902132905 13 345 19.3 33.8 0.00 0.00 0.00 87 1015.6
20260902132405 13 344 14.5 40.2 0.00 0.00 0.00 87 1015.5
20260902131905 13 352 19.3 38.6 0.00 0.00 0.00 87 1015.6
20260902130905 13 351 16.1 32.2 0.00 0.00 0.00 87 1015.5
20260902130405 13 349 19.3 40.2 0.00 0.00 0.00 87 1015.6
20260902125905 13 341 19.3 45.1 0.00 0.00 0.00 87 1015.6
20260902125406 13 336 16.1 32.2 0.00 0.00 0.00 87 1015.6
20260902124905 13 349 20.9 37.0 0.00 0.00 0.00 87 1015.4
20260902124405 13 349 16.1 33.8 0.00 0.00 0.00 87 1015.4
20260902123905 13 333 16.1 33.8 0.00 0.00 0.00 87 1015.4
20260902121905 13 345 20.9 38.6 0.00 0.00 0.00 86 1015.2
20260902121405 13 330 14.5 32.2 0.00 0.00 0.00 86 1015.2
20260902120905 13 329 19.3 35.4 0.00 0.00 0.00 86 1015.2
20260902120405 13 350 20.9 33.8 0.00 0.00 0.00 86 1015.2
20260902115905 13 337 20.9 37.0 0.00 0.00 0.00 86 1015.2
20260902115406 13 345 16.1 33.8 0.00 0.00 0.00 86 1015.2
20260902114906 13 351 19.3 37.0 0.00 0.00 0.00 86 1015.2
20260902113405 13 345 16.1 37.0 0.00 0.00 0.00 87 1015.2
20260902112905 13 354 14.5 35.4 0.00 0.00 0.00 87 1015.2
20260902112405 13 330 16.1 32.2 0.00 0.00 0.00 87 1015.3
20260902111905 13 342 14.5 29.0 0.00 0.00 0.00 87 1015.3
20260902111405 13 347 11.3 32.2 0.00 0.00 0.00 87 1015.3
20260902110905 13 332 14.5 38.6 0.00 0.00 0.00 87 1015.4
20260902110405 13 332 19.3 40.2 0.00 0.00 0.00 87 1015.2
20260902104405 13 336 19.3 37.0 0.00 0.00 0.00 86 1015.2
20260902103405 13 332 19.3 37.0 0.00 0.00 0.00 86 1015.2
20260902102904 13 357 19.3 32.2 0.00 0.00 0.00 86 1015.2
20260902102405 13 356 22.5 46.7 0.00 0.00 0.00 86 1015.1
20260902101909 13 341 20.9 37.0 0.00 0.00 0.00 86 1015.2
20260902101405 13 341 20.9 45.1 0.00 0.00 0.00 86 1015.2
20260902100905 13 345 19.3 38.6 0.00 0.00 0.00 86 1015.1
20260902100405 13 354 17.7 38.6 0.00 0.00 0.00 86 1015.2
20260902095905 13 351 16.1 32.2 0.00 0.00 0.00 85 1015.2
20260902095405 13 350 16.1 29.0 0.00 0.00 0.00 85 1015.1
20260902094905 13 286 16.1 32.2 0.00 0.00 0.00 85 1015.1
20260902094405 13 346 20.9 33.8 0.00 0.00 0.00 84 1015.2
20260902093905 13 356 16.1 38.6 0.00 0.00 0.00 84 1015.3
20260902092907 13 344 16.1 33.8 0.00 0.00 0.00 84 1015.1
20260902092406 13 346 22.5 45.1 0.00 0.00 0.00 84 1015.0
20260902091905 13 316 20.9 38.6 0.00 0.00 0.00 84 1014.9
20260902091406 13 337 17.7 32.2 0.00 0.00 0.00 85 1014.9
20260902090905 13 327 16.1 32.2 0.00 0.00 0.00 84 1014.9
20260902090406 13 333 14.5 37.0 0.00 0.00 0.00 84 1014.9
20260902085405 13 343 17.7 37.0 0.00 0.00 0.00 84 1014.6
20260902084906 13 356 20.9 40.2 0.00 0.00 0.00 85 1014.7
20260902084407 13 331 16.1 32.2 0.00 0.00 0.00 85 1014.7
20260902083909 13 344 19.3 41.8 0.00 0.00 0.00 85 1014.7
20260902083405 13 330 16.1 27.4 0.00 0.00 0.00 85 1014.7
20260902082406 13 343 19.3 37.0 0.00 0.00 0.00 84 1014.7
20260902081905 13 349 17.7 38.6 0.00 0.00 0.00 84 1014.6
20260902081405 13 331 14.5 32.2 0.00 0.00 0.00 84 1014.6
20260902080904 13 331 11.3 32.2 0.00 0.00 0.00 84 1014.6
20260902080405 13 348 14.5 35.4 0.00 0.00 0.00 84 1014.5
20260902075905 13 344 14.5 45.1 0.00 0.00 0.00 84 1014.4
20260902074905 13 301 19.3 38.6 0.00 0.00 0.00 85 1014.5
20260902074406 13 317 14.5 32.2 0.00 0.00 0.00 85 1014.5
20260902073906 13 345 17.7 32.2 0.00 0.00 0.00 85 1014.3
20260902073405 13 345 16.1 40.2 0.00 0.00 0.00 85 1014.3
20260902072905 13 343 14.5 25.7 0.00 0.00 0.00 85 1014.3
20260902072405 13 344 14.5 32.2 0.00 0.00 0.00 84 1014.4
20260902071905 13 351 17.7 35.4 0.00 0.00 0.00 84 1014.6
20260902071405 13 346 16.1 41.8 0.00 0.00 0.00 84 1014.6
20260902070405 13 329 14.5 33.8 0.00 0.00 0.00 84 1014.5
20260902065906 13 353 20.9 37.0 0.00 0.00 0.00 85 1014.5
20260902065405 13 298 19.3 32.2 0.00 0.00 0.00 85 1014.3
20260902064905 13 346 24.1 38.6 0.00 0.00 0.00 85 1014.3
20260902064405 13 348 17.7 37.0 0.00 0.00 0.00 85 1014.4
20260902063905 13 340 16.1 41.8 0.00 0.00 0.00 86 1014.4
20260902063405 13 326 16.1 41.8 0.00 0.00 0.00 86 1014.6
20260902062906 13 309 14.5 32.2 0.00 0.00 0.00 86 1014.6
20260902062409 13 316 14.5 33.8 0.00 0.00 0.00 87 1014.6
20260902061906 13 330 11.3 32.2 0.00 0.00 0.00 87 1014.7
20260902061405 13 339 12.9 27.4 0.00 0.00 0.00 87 1014.7
20260902060905 13 337 9.7 24.1 0.00 0.00 0.00 87 1014.7
20260902060405 13 294 14.5 38.6 0.00 0.00 0.00 87 1014.7
20260902055905 13 316 14.5 25.7 0.00 0.00 0.00 87 1014.5
20260902055405 13 290 9.7 22.5 0.00 0.00 0.00 87 1014.6
20260902054405 13 318 11.3 29.0 0.00 0.00 0.00 87 1014.6
20260902053905 13 275 11.3 25.7 0.00 0.00 0.00 87 1014.7
20260902052906 13 340 8.0 20.9 0.00 0.00 0.00 87 1014.6
20260902052405 13 314 12.9 27.4 0.00 0.00 0.00 87 1014.6
20260902051905 13 321 8.0 32.2 0.00 0.00 0.00 87 1014.6
20260902050904 13 346 14.5 25.7 0.00 0.00 0.00 86 1014.5
20260902050404 13 338 11.3 29.0 0.00 0.00 0.00 86 1014.5
20260902045905 13 344 14.5 29.0 0.00 0.00 0.00 86 1014.6
20260902045405 13 333 14.5 32.2 0.00 0.00 0.00 87 1014.6
20260902044905 13 314 11.3 27.4 0.00 0.00 0.00 87 1014.5